Location: La Fredeussais
(48.1780°N, 1.3980°W)
Time: 09:32:43
(UTC+00:00)

CUTE 1.7 + AOD 2 - Visible Passes

Search period start: 28 October 2021 00:00
Search period end: 07 November 2021 00:00
Orbit: 593 x 609 km, 97.6° (Epoch: 27 October)

Date Brightness Start Highest point End Pass type
(mag) Time Alt. Az. Time Alt. Az. Time Alt. Az.
28 Oct ? 03:53:31 10° NNE 03:57:34 39° E 03:58:46 32° SE visible
28 Oct ? 05:29:41 10° N 05:33:08 24° WNW 05:35:32 15° WSW visible
29 Oct ? 04:04:57 10° NNE 04:09:10 52° E 04:10:12 41° SE visible
29 Oct ? 05:41:32 10° NNW 05:44:34 19° WNW 05:46:58 13° W visible
30 Oct ? 04:16:27 10° NNE 04:20:45 69° ESE 04:21:38 52° SSE visible
30 Oct ? 05:53:29 10° NNW 05:55:59 15° WNW 05:58:23 10° W visible
31 Oct ? 02:55:42 10° E 02:55:52 10° E 02:56:03 10° E visible
31 Oct ? 04:27:59 10° NNE 04:32:17 89° E 04:33:03 60° SSW visible
31 Oct ? 06:05:40 10° NW 06:07:23 12° WNW 06:09:06 10° W visible
01 Nov ? 03:05:28 10° ENE 03:07:35 13° E 03:07:42 13° E visible
01 Nov ? 04:39:33 10° N 04:43:50 70° WNW 04:44:28 59° SW visible
02 Nov ? 03:16:23 10° NE 03:19:07 17° E 03:19:07 17° E visible
02 Nov ? 04:51:09 10° N 04:55:20 53° WNW 04:55:53 49° W visible
03 Nov ? 03:27:32 10° NE 03:30:32 22° E 03:30:32 22° E visible
03 Nov ? 05:02:48 10° N 05:06:50 41° WNW 05:07:17 39° W visible
04 Nov ? 03:38:48 10° NE 03:41:56 27° E 03:41:56 27° E visible
04 Nov ? 05:14:30 10° N 05:18:18 32° WNW 05:18:41 31° WNW visible
05 Nov ? 03:50:10 10° NNE 03:53:20 34° ENE 03:53:20 34° ENE visible
05 Nov ? 05:26:15 10° N 05:29:45 25° WNW 05:30:07 25° WNW visible
06 Nov ? 04:01:34 10° NNE 04:04:46 40° ENE 04:04:46 40° ENE visible
06 Nov ? 05:38:03 10° NNW 05:41:11 20° WNW 05:41:31 20° WNW visible
